SES-5 (EGNOS/PRN 136)

Last updated on Sun Apr 12 2026 00:03:34 GMT+0000 (Coordinated Universal Time)

1 38652U 12036A 26101.30777616 .00000035 00000+0 00000+0 0 9999 2 38652 0.0590 302.6364 0001840 82.7207 289.9449 1.00271508 43784
UTC large
Height (km)
Speed (km/s)
/
Latitude / Longitude
Inclination (degrees)
Orbital Period (minutes)
Azimuth
Elevation
Range (km)
Doppler Factor

Next 0 passes for location: London (51.5072 / 0.1276)

Sorry there are no passes over London.
SES-5 (EGNOS/PRN 136)